Location: Gwatt
(46.7204°N, 7.6223°E)
Time: 12:16:51
(UTC+00:00)

S-56A Canister/Altair - Pass Details

Date: 29 January 2021
Orbit: 632 x 2501 km, 38.9° (Epoch: 28 February)

Event Time Altitude Azimuth Distance (km) Brightness Sun altitude
Rises 23:47:11 0° 226° (SW) 3,722 - -60.9°
Reaches altitude 10° 23:50:41 10° 212° (SSW) 2,501 - -60.9°
Maximum altitude 23:54:53 22° 163° (SSE) 1,584 - -60.8°
Drops below altitude 10° 23:58:27 10° 113° (ESE) 2,078 - -60.8°
Sets 00:01:02 0° 96° (E) 2,927 - -60.7°
